This demonstration page uses our WeatherBlox Daily Observations layout. Learn more.

Hourly Observations for July 16, 2017

Temp ( °F °C ) Dew Point ( °F °C ) Humidity (%) Winds ( mph kmh ) Pressure ( in mb ) Visibility ( mi km ) Precip ( " mm )
12:53 am 00:53 Clear 66 18.9 66 18.9 100 100 Calm 30.04 1017 7 11.26538 0 0
1:53 am 01:53 Clear with Mist and Fog 65 18.3 65 18.3 100 100 Calm 30.04 1017 6 9.65604 0 0
2:53 am 02:53 Clear with Mist and Fog 65 18.3 65 18.3 100 100 Calm 30.04 1017 6 9.65604 0 0
3:53 am 03:53 Clear with Mist and Fog 64 17.8 63 17.2 96 96 Calm 30.03 1017 6 9.65604 0 0
4:53 am 04:53 Clear with Mist and Fog 63 17.2 63 17.2 100 100 Calm 30.03 1017 4 6.43736 0 0
5:29 am 05:29 Partly Cloudy with Mist and Fog 64 17.8 64 17.8 100 100 WSW 3 6 30.06 1018 2.5 4.02335 0 0
5:32 am 05:32 Partly Cloudy with Mist and Fog 64 17.8 64 17.8 100 100 WSW 3 6 30.06 1018 1.5 2.41401 0 0
5:35 am 05:35 Mostly Cloudy with Mist and Fog 64 17.8 64 17.8 100 100 Calm 30.06 1018 0.75 1.207005 0 0
5:53 am 05:53 Mostly Cloudy with Fog 64 17.8 64 17.8 100 100 Calm 30.02 1017 0.5 0.80467 0 0
6:28 am 06:28 Cloudy with Mist and Fog 64 17.8 64 17.8 100 100 Calm 30.06 1018 1 1.60934 0 0
6:44 am 06:44 Cloudy with Fog 63 17.2 63 17.2 100 100 Calm 30.06 1018 0.25 0.402335 0 0
6:53 am 06:53 Mostly Cloudy with Fog 64 17.8 64 17.8 100 100 Calm 30.03 1017 5 8.0467 0 0
7:28 am 07:28 Mostly Cloudy with Mist and Fog 65 18.3 65 18.3 100 100 NW 3 6 30.06 1018 1.75 2.816345 0 0
7:33 am 07:33 Partly Cloudy with Mist and Fog 65 18.3 65 18.3 100 100 Calm 30.06 1018 2.5 4.02335 0 0
7:41 am 07:41 Partly Cloudy with Mist and Fog 65 18.3 65 18.3 100 100 Calm 30.06 1018 4 6.43736 0 0
7:53 am 07:53 Sunny with Mist and Fog 66 18.9 66 18.9 100 100 Calm 30.03 1017 4 6.43736 0 0
8:53 am 08:53 Sunny with Mist and Fog 70 21.1 68 20 93 93 Calm 30.04 1017 6 9.65604 0 0
9:53 am 09:53 Sunny 75 23.9 67 19.4 76 76 WNW 3 6 30.04 1017 8 12.87472 0 0
10:53 am 10:53 Sunny 78 25.6 66 18.9 67 67 SW 6 9 30.03 1017 8 12.87472 0 0
11:53 am 11:53 Sunny 78 25.6 66 18.9 67 67 WSW 7 11 30.01 1016 9 14.48406 0 0
12:53 pm 12:53 Sunny 81 27.2 69 20.6 67 67 VRB 6 9 30.02 1017 8 12.87472 0 0
1:53 pm 13:53 Mostly Sunny 78 25.6 68 20 71 71 W 6 9 30.01 1016 9 14.48406 0 0
2:53 pm 14:53 Mostly Cloudy 82 27.8 69 20.6 65 65 VRB 5 7 30 1016 8 12.87472 0 0
3:53 pm 15:53 Sunny 84 28.9 68 20 59 59 SW 5 7 29.98 1015 9 14.48406 0 0
4:53 pm 16:53 Sunny 84 28.9 67 19.4 57 57 W 7 11 29.97 1015 9 14.48406 0 0
5:53 pm 17:53 Sunny 84 28.9 67 19.4 57 57 WSW 5 7 29.96 1014 9 14.48406 0 0
6:53 pm 18:53 Sunny 84 28.9 64 17.8 51 51 VRB 5 7 29.95 1014 9 14.48406 0 0
7:53 pm 19:53 Sunny 82 27.8 66 18.9 58 58 WSW 3 6 29.94 1014 9 14.48406 0 0
8:53 pm 20:53 Sunny 73 22.8 70 21.1 90 90 Calm 29.93 1014 9 14.48406 0 0
9:53 pm 21:53 Clear 70 21.1 69 20.6 97 97 Calm 29.95 1014 8 12.87472 0 0
10:53 pm 22:53 Clear 69 20.6 68 20 96 96 Calm 29.98 1015 9 14.48406 0 0
11:53 pm 23:53 Partly Cloudy 70 21.1 69 20.6 97 97 Calm 30.01 1016 8 12.87472 0 0

Powered by AerisWeather